Change the Weather History Date:

Wednesday, October 31, 2012

  Actual Average Record
Temperature  
Mean Temperature 26 °F -  
Max Temperature 30 °F 34 °F 51 °F (2005)
Min Temperature 21 °F 26 °F 21 °F (2012)
Degree Days  
Heating Degree Days 40    
Moisture  
Dew Point 26 °F    
Average Humidity 97    
Maximum Humidity 100    
Minimum Humidity 78    
Precipitation  
Precipitation 0.28 in 0.07 in - ()
Sea Level Pressure  
Sea Level Pressure 29.63 in    
Wind  
Wind Speed 11 mph ()    
Max Wind Speed 23 mph    
Max Gust Speed 38 mph    
Visibility 1.6 miles    
Events Fog , Rain , Snow    
Averages and records for this station are not official NWS values.
T = Trace of Precipitation, MM = Missing Value Source: Averaged Metar Reports

Daily Weather History Graph

Daily Weather History Graph

Search for Another Location

Airport or City:

Trip Planner

Search our weather history database for the weather conditions in past years. The results will help you decide how hot, cold, wet, or windy it might be!

Date:

Astronomy

Oct. 31, 2012 Rise Set
Actual Time 6:55 AM CET 5:02 PM CET
Civil Twilight 6:24 AM CET 5:33 PM CET
Nautical Twilight 5:48 AM CET 6:09 PM CET
Astronomical Twilight 5:14 AM CET 6:43 PM CET
Moon 5:55 PM CET (10/31) 8:27 AM CET (10/31)
Length of Visible Light 11h 09m
Length of Day
10h 07m
Full, 98% of the Moon is Illuminated
Oct 31
Full
Nov 7
Last Quarter
Nov 13
New
Nov 20
First Quarter
Nov 28
Full

Hourly Weather History & Observations

Time (CET) Temp. Windchill Dew Point Humidity Pressure Visibility Wind Dir Wind Speed Gust Speed Precip Events Conditions
12:55 AM 21.2 °F 7.3 °F 21.2 °F 100% 29.71 in - SW 16.1 mph - N/A   Clear
1:00 AM 22 °F - 21 °F 92%  in 6 mi SW 16.1 mph - -   Partly Cloudy
1:55 AM 21.2 °F 8.3 °F 21.2 °F 100% 29.71 in 0.0 mi South 13.8 mph - N/A Fog Light Freezing Fog
2:55 AM 23.0 °F 9.2 °F 23.0 °F 100% 29.71 in 0.0 mi South 17.3 mph - N/A Fog Light Freezing Fog
3:55 AM 23.0 °F 11.1 °F 23.0 °F 100% 29.71 in 0.0 mi SSW 12.7 mph - N/A Fog Light Freezing Fog
4:00 AM 23 °F - 23 °F 100%  in 0 mi SSW 12.7 mph - - Fog Heavy Fog
4:55 AM 23.0 °F 10.1 °F 23.0 °F 100% 29.68 in 0.0 mi SSW 15.0 mph - N/A Fog Light Freezing Fog
5:55 AM 24.8 °F 14.0 °F 24.8 °F 100% 29.71 in 0.0 mi SSW 11.5 mph - N/A Fog Light Freezing Fog
6:55 AM 24.8 °F 16.1 °F 24.8 °F 100% 29.68 in 0.0 mi South 8.1 mph - N/A Fog Light Freezing Fog
7:00 AM 25 °F - 25 °F 100%  in 0 mi South 8.1 mph - - Fog Heavy Fog
7:55 AM 24.8 °F 13.4 °F 24.8 °F 100% 29.71 in 0.0 mi SSW 12.7 mph - N/A Fog Light Freezing Fog
8:55 AM 24.8 °F 15.3 °F 24.8 °F 100% 29.71 in 0.0 mi South 9.2 mph - N/A Fog Light Freezing Fog
9:55 AM 26.6 °F 17.5 °F 26.6 °F 100% 29.74 in 0.0 mi South 9.2 mph - N/A Fog Light Freezing Fog
10:00 AM 27 °F - 27 °F 100%  in 0 mi South 9.2 mph - - Fog Heavy Fog
10:55 AM 28.4 °F 21.2 °F 28.4 °F 100% 29.71 in 0.0 mi South 6.9 mph - N/A Fog Light Freezing Fog
11:55 AM 28.4 °F 20.4 °F 28.4 °F 100% 29.71 in 0.0 mi SSW 8.1 mph - N/A Fog Light Freezing Fog
12:55 PM 28.4 °F 20.4 °F 28.4 °F 100% 29.68 in 6.2 mi SSE 8.1 mph - N/A   Scattered Clouds
1:00 PM 29 °F - 28 °F 94%  in 19 mi SSE 8.1 mph - -   Overcast
1:55 PM 30.2 °F 21.9 °F 28.4 °F 93% 29.68 in 6.2 mi SSE 9.2 mph - N/A   Scattered Clouds
2:55 PM 30.2 °F 25.4 °F 26.6 °F 86% 29.65 in 6.2 mi SE 4.6 mph - N/A   Scattered Clouds
3:55 PM 28.4 °F 22.2 °F 24.8 °F 86% 29.62 in 0.3 mi NNE 5.8 mph - N/A Fog , Snow Light Snow
4:00 PM 29 °F - 25 °F 78%  in 0 mi NNE 5.8 mph - - Snow Light Snow
4:55 PM 26.6 °F 19.1 °F 23.0 °F 86% 29.59 in 0.4 mi NNE 6.9 mph - N/A Fog , Snow Light Snow
5:55 PM 26.6 °F 16.8 °F 24.8 °F 93% 29.59 in - NNE 10.4 mph - N/A Fog Light Freezing Fog
6:55 PM 28.4 °F 18.0 °F 26.6 °F 93% 29.56 in 0.4 mi ENE 12.7 mph - N/A Fog , Snow Light Snow
7:00 PM 28 °F - 28 °F 97%  in 0 mi ENE 12.7 mph - - Rain Light Freezing Rain
7:55 PM 28.4 °F 16.6 °F 28.4 °F 100% 29.53 in 0.6 mi East 16.1 mph 27.6 mph N/A Fog , Snow Light Snow
8:55 PM 30.2 °F 18.5 °F 30.2 °F 100% 29.50 in 0.6 mi East 17.3 mph 32.2 mph N/A Fog , Snow Light Snow
9:55 PM 30.2 °F 17.4 °F 30.2 °F 100% 29.47 in 0.5 mi ESE 20.7 mph 33.4 mph N/A Fog , Snow Light Snow
10:00 PM 30 °F - 30 °F 100%  in 0 mi ESE 20.7 mph - - Snow Light Snow
10:55 PM 30.2 °F 19.3 °F 30.2 °F 100% 29.44 in 0.3 mi East 15.0 mph 28.8 mph N/A Fog , Snow Snow
11:55 PM 30.2 °F 16.8 °F 30.2 °F 100% 29.36 in 0.3 mi East 23.0 mph 38.0 mph N/A Fog , Snow Snow